KQA486 HKJK-HTDA

Flight info

Callsign KQA486
Flight time 1h 2m
Altitude 37000
Route ATUDU1D GABSO UL445 GEREN XUKER1C
Aircraft B738/M-SDE2E3FGHIRWXY/LB1

Departure

Time 2026-04-28 18:10
Airport Jomo Kenyatta International Airport (HKJK)

Arrival

Time 2026-04-28 19:12
Airport Julius Nyerere International Airport (HTDA)
Time Latitude Longitude Altitude Speed Heading
2026-04-28 17:18 -1.32866 36.92546 5316 ft 0 kts 193°
2026-04-28 17:55 -1.32852 36.92549 5287 ft 4 kts 195°
2026-04-28 17:55 -1.32826 36.92557 5322 ft 4 kts 202°
2026-04-28 17:55 -1.32802 36.92569 5318 ft 4 kts 214°
2026-04-28 17:55 -1.32783 36.92586 5320 ft 4 kts 251°
2026-04-28 17:56 -1.32782 36.92601 5316 ft 1 kts 284°
2026-04-28 17:56 -1.32782 36.92603 5318 ft 0 kts 284°
2026-04-28 18:00 -1.32780 36.92593 5315 ft 5 kts 284°
2026-04-28 18:00 -1.32766 36.92532 5315 ft 12 kts 278°
2026-04-28 18:00 -1.32770 36.92446 5316 ft 8 kts 259°
2026-04-28 18:01 -1.32759 36.92403 5318 ft 7 kts 315°
2026-04-28 18:01 -1.32720 36.92374 5317 ft 8 kts 324°
2026-04-28 18:01 -1.32670 36.92346 5322 ft 9 kts 352°
2026-04-28 18:01 -1.32622 36.92383 5317 ft 10 kts 54°
2026-04-28 18:02 -1.32579 36.92443 5324 ft 11 kts 54°
2026-04-28 18:02 -1.32528 36.92513 5316 ft 13 kts 53°
2026-04-28 18:02 -1.32470 36.92592 5323 ft 15 kts 53°
2026-04-28 18:02 -1.32409 36.92673 5315 ft 14 kts 54°
2026-04-28 18:03 -1.32349 36.92756 5322 ft 15 kts 54°
2026-04-28 18:03 -1.32280 36.92850 5321 ft 18 kts 53°
2026-04-28 18:03 -1.32206 36.92950 5321 ft 18 kts 53°
2026-04-28 18:03 -1.32128 36.93057 5315 ft 20 kts 54°
2026-04-28 18:04 -1.32038 36.93179 5312 ft 23 kts 54°
2026-04-28 18:04 -1.31944 36.93310 5310 ft 24 kts 54°
2026-04-28 18:04 -1.31840 36.93451 5304 ft 25 kts 54°
2026-04-28 18:04 -1.31742 36.93586 5310 ft 23 kts 54°
2026-04-28 18:05 -1.31643 36.93722 5308 ft 25 kts 54°
2026-04-28 18:05 -1.31573 36.93817 5305 ft 25 kts 53°
2026-04-28 18:05 -1.31445 36.93989 5304 ft 14 kts 43°
2026-04-28 18:05 -1.31362 36.93965 5302 ft 14 kts 323°
2026-04-28 18:06 -1.31287 36.93912 5303 ft 13 kts 324°
2026-04-28 18:06 -1.31215 36.93860 5301 ft 13 kts 324°
2026-04-28 18:06 -1.31140 36.93852 5299 ft 12 kts 47°
2026-04-28 18:06 -1.31089 36.93921 5298 ft 13 kts 54°
2026-04-28 18:07 -1.31030 36.94001 5294 ft 17 kts 53°
2026-04-28 18:07 -1.30955 36.94105 5291 ft 20 kts 53°
2026-04-28 18:07 -1.30870 36.94220 5291 ft 21 kts 53°
2026-04-28 18:07 -1.30778 36.94346 5289 ft 23 kts 54°
2026-04-28 18:08 -1.30687 36.94470 5292 ft 22 kts 53°
2026-04-28 18:08 -1.30601 36.94554 5290 ft 14 kts 15°
2026-04-28 18:08 -1.30571 36.94603 5289 ft 8 kts 131°
2026-04-28 18:08 -1.30609 36.94589 5290 ft 7 kts 250°
2026-04-28 18:09 -1.30632 36.94547 5291 ft 7 kts 234°
2026-04-28 18:09 -1.30703 36.94447 5291 ft 44 kts 234°
2026-04-28 18:09 -1.31020 36.94014 5293 ft 108 kts 234°
2026-04-28 18:09 -1.31575 36.93256 5306 ft 160 kts 234°
2026-04-28 18:10 -1.32303 36.92256 5632 ft 183 kts 233°
2026-04-28 18:10 -1.33091 36.91253 6400 ft 193 kts 233°
2026-04-28 18:10 -1.33907 36.90221 7256 ft 183 kts 226°
2026-04-28 18:10 -1.35025 36.89462 7541 ft 211 kts 201°
2026-04-28 18:11 -1.36488 36.88979 7774 ft 233 kts 199°
2026-04-28 18:11 -1.38107 36.88402 7924 ft 256 kts 201°
2026-04-28 18:11 -1.39796 36.87744 8359 ft 266 kts 202°
2026-04-28 18:11 -1.41584 36.87017 8576 ft 286 kts 203°
2026-04-28 18:12 -1.43434 36.86244 9315 ft 289 kts 204°
2026-04-28 18:12 -1.45291 36.85455 9732 ft 290 kts 204°
2026-04-28 18:12 -1.47164 36.84653 9888 ft 296 kts 204°
2026-04-28 18:12 -1.49035 36.83850 9960 ft 299 kts 204°
2026-04-28 18:13 -1.51089 36.83208 10095 ft 324 kts 185°
2026-04-28 18:13 -1.53364 36.83554 10407 ft 343 kts 158°
2026-04-28 18:13 -1.55516 36.84639 11004 ft 349 kts 152°
2026-04-28 18:13 -1.57651 36.85832 11694 ft 353 kts 151°
2026-04-28 18:14 -1.59791 36.87055 12421 ft 356 kts 151°
2026-04-28 18:14 -1.61950 36.88288 13162 ft 359 kts 151°
2026-04-28 18:14 -1.64136 36.89529 13872 ft 362 kts 151°
2026-04-28 18:14 -1.66338 36.90770 14490 ft 365 kts 151°
2026-04-28 18:15 -1.68566 36.92018 15136 ft 367 kts 151°
2026-04-28 18:15 -1.70809 36.93270 15755 ft 370 kts 151°
2026-04-28 18:15 -1.73068 36.94527 16350 ft 374 kts 150°
2026-04-28 18:15 -1.75348 36.95794 16971 ft 376 kts 150°
2026-04-28 18:16 -1.77642 36.97068 17547 ft 380 kts 150°
2026-04-28 18:16 -1.79964 36.98357 18101 ft 383 kts 150°
2026-04-28 18:16 -1.82273 36.99639 18659 ft 385 kts 150°
2026-04-28 18:16 -1.84629 37.00946 19111 ft 389 kts 150°
2026-04-28 18:17 -1.86999 37.02261 19633 ft 390 kts 150°
2026-04-28 18:17 -1.89388 37.03587 20092 ft 394 kts 150°
2026-04-28 18:17 -1.91793 37.04921 20599 ft 396 kts 150°
2026-04-28 18:17 -1.94209 37.06262 21051 ft 399 kts 150°
2026-04-28 18:18 -1.96654 37.07619 21432 ft 404 kts 150°
2026-04-28 18:18 -1.99119 37.08987 21896 ft 406 kts 150°
2026-04-28 18:18 -2.01595 37.10361 22363 ft 408 kts 150°
2026-04-28 18:18 -2.03241 37.11275 22657 ft 410 kts 150°
2026-04-28 18:19 -2.06592 37.13135 23241 ft 413 kts 150°
2026-04-28 18:19 -2.09108 37.14531 23631 ft 415 kts 150°
2026-04-28 18:19 -2.11640 37.15937 23979 ft 418 kts 150°
2026-04-28 18:19 -2.14191 37.17353 24314 ft 420 kts 150°
2026-04-28 18:20 -2.16719 37.18756 24700 ft 421 kts 150°
2026-04-28 18:20 -2.19283 37.20180 25024 ft 423 kts 150°
2026-04-28 18:20 -2.21861 37.21611 25317 ft 426 kts 150°
2026-04-28 18:20 -2.24463 37.23056 25654 ft 428 kts 150°
2026-04-28 18:21 -2.27074 37.24505 26069 ft 428 kts 150°
2026-04-28 18:21 -2.29663 37.25943 26494 ft 427 kts 150°
2026-04-28 18:21 -2.32271 37.27391 26739 ft 431 kts 150°
2026-04-28 18:21 -2.34915 37.28860 26920 ft 437 kts 150°
2026-04-28 18:22 -2.37578 37.30339 27270 ft 437 kts 150°
2026-04-28 18:22 -2.40234 37.31813 27678 ft 437 kts 150°
2026-04-28 18:22 -2.42893 37.33290 27981 ft 439 kts 150°
2026-04-28 18:22 -2.45574 37.34779 28142 ft 444 kts 150°
2026-04-28 18:23 -2.48292 37.36289 28367 ft 447 kts 150°
2026-04-28 18:23 -2.51009 37.37799 28686 ft 448 kts 150°
2026-04-28 18:23 -2.53743 37.39317 29022 ft 449 kts 150°
2026-04-28 18:23 -2.56480 37.40837 29306 ft 451 kts 150°
2026-04-28 18:24 -2.59231 37.42366 29536 ft 453 kts 150°
2026-04-28 18:24 -2.61061 37.43382 29700 ft 455 kts 150°
2026-04-28 18:24 -2.64771 37.45444 30035 ft 457 kts 150°
2026-04-28 18:24 -2.67554 37.46990 30275 ft 459 kts 150°
2026-04-28 18:25 -2.70350 37.48544 30502 ft 460 kts 150°
2026-04-28 18:25 -2.73142 37.50096 30813 ft 458 kts 150°
2026-04-28 18:25 -2.75927 37.51644 31081 ft 459 kts 150°
2026-04-28 18:26 -2.81478 37.54729 31613 ft 459 kts 150°
2026-04-28 18:26 -2.84266 37.56279 31921 ft 458 kts 150°
2026-04-28 18:26 -2.87093 37.57741 32219 ft 458 kts 154°
2026-04-28 18:26 -2.89987 37.59085 32499 ft 459 kts 155°
2026-04-28 18:27 -2.92898 37.60384 32783 ft 459 kts 155°
2026-04-28 18:27 -2.95824 37.61674 33087 ft 458 kts 155°
2026-04-28 18:27 -2.98737 37.62964 33379 ft 458 kts 155°
2026-04-28 18:27 -3.01650 37.64265 33678 ft 458 kts 155°
2026-04-28 18:28 -3.04560 37.65575 33945 ft 458 kts 155°
2026-04-28 18:28 -3.07471 37.66891 34167 ft 459 kts 155°
2026-04-28 18:28 -3.10374 37.68207 34459 ft 458 kts 155°
2026-04-28 18:28 -3.13263 37.69518 34817 ft 455 kts 154°
2026-04-28 18:29 -3.16137 37.70823 35161 ft 452 kts 154°
2026-04-28 18:29 -3.19001 37.72123 35429 ft 451 kts 154°
2026-04-28 18:29 -3.21855 37.73419 35691 ft 450 kts 154°
2026-04-28 18:29 -3.24709 37.74714 35970 ft 449 kts 154°
2026-04-28 18:30 -3.27545 37.76001 36245 ft 447 kts 154°
2026-04-28 18:30 -3.33172 37.78554 36795 ft 445 kts 154°
2026-04-28 18:30 -3.35988 37.79832 36970 ft 446 kts 154°
2026-04-28 18:31 -3.38818 37.81117 36936 ft 448 kts 154°
2026-04-28 18:31 -3.44506 37.83699 36931 ft 447 kts 154°
2026-04-28 18:32 -3.50145 37.86259 36920 ft 442 kts 154°
2026-04-28 18:32 -3.55729 37.88795 36926 ft 440 kts 154°
2026-04-28 18:33 -3.61409 37.90964 36924 ft 440 kts 164°
2026-04-28 18:33 -3.67361 37.92439 36919 ft 441 kts 165°
2026-04-28 18:34 -3.73316 37.93936 36912 ft 441 kts 164°
2026-04-28 18:34 -3.79269 37.95488 36916 ft 442 kts 163°
2026-04-28 18:35 -3.85127 37.97352 36909 ft 442 kts 157°
2026-04-28 18:35 -3.90830 37.99676 36898 ft 443 kts 156°
2026-04-28 18:36 -3.96535 38.02033 36902 ft 443 kts 157°
2026-04-28 18:36 -4.02255 38.04351 36898 ft 443 kts 157°
2026-04-28 18:37 -4.07976 38.06644 36895 ft 442 kts 157°
2026-04-28 18:37 -4.13650 38.08911 36896 ft 441 kts 157°
2026-04-28 18:38 -4.19347 38.11188 36903 ft 440 kts 157°
2026-04-28 18:38 -4.25031 38.13462 36902 ft 439 kts 157°
2026-04-28 18:39 -4.30704 38.15732 36902 ft 438 kts 157°
2026-04-28 18:39 -4.36364 38.17997 36918 ft 437 kts 157°
2026-04-28 18:40 -4.42021 38.20261 36898 ft 437 kts 157°
2026-04-28 18:40 -4.47662 38.22519 36918 ft 436 kts 157°
2026-04-28 18:41 -4.53262 38.24761 36911 ft 437 kts 157°
2026-04-28 18:41 -4.58915 38.27026 36928 ft 438 kts 157°
2026-04-28 18:42 -4.64588 38.29298 36924 ft 439 kts 157°
2026-04-28 18:42 -4.70277 38.31577 36931 ft 441 kts 157°
2026-04-28 18:42 -4.73129 38.32719 36792 ft 444 kts 157°
2026-04-28 18:43 -4.76000 38.33870 36466 ft 442 kts 157°
2026-04-28 18:43 -4.78842 38.35009 36069 ft 437 kts 158°
2026-04-28 18:43 -4.81656 38.36136 35692 ft 433 kts 158°
2026-04-28 18:43 -4.84441 38.37252 35285 ft 429 kts 158°
2026-04-28 18:44 -4.87207 38.38361 34892 ft 426 kts 158°
2026-04-28 18:44 -4.92648 38.40543 34079 ft 421 kts 158°
2026-04-28 18:44 -4.95366 38.41633 33632 ft 418 kts 158°
2026-04-28 18:45 -4.98057 38.42712 33223 ft 415 kts 158°
2026-04-28 18:45 -5.00727 38.43783 32817 ft 412 kts 158°
2026-04-28 18:45 -5.03377 38.44846 32412 ft 409 kts 158°
2026-04-28 18:45 -5.06013 38.45903 32029 ft 406 kts 158°
2026-04-28 18:46 -5.08659 38.46854 31650 ft 403 kts 162°
2026-04-28 18:46 -5.11344 38.47641 31275 ft 400 kts 164°
2026-04-28 18:46 -5.14031 38.48365 30893 ft 398 kts 165°
2026-04-28 18:46 -5.16698 38.49077 30516 ft 396 kts 165°
2026-04-28 18:47 -5.19351 38.49795 30143 ft 394 kts 165°
2026-04-28 18:47 -5.21987 38.50523 29715 ft 392 kts 164°
2026-04-28 18:47 -5.24577 38.51249 29302 ft 389 kts 164°
2026-04-28 18:47 -5.27171 38.51982 28885 ft 386 kts 164°
2026-04-28 18:48 -5.29746 38.52715 28500 ft 383 kts 164°
2026-04-28 18:48 -5.32305 38.53443 28116 ft 380 kts 164°
2026-04-28 18:48 -5.34024 38.53933 27853 ft 378 kts 164°
2026-04-28 18:48 -5.36542 38.54651 27469 ft 375 kts 164°
2026-04-28 18:49 -5.39015 38.55356 27100 ft 373 kts 164°
2026-04-28 18:49 -5.40696 38.55835 26849 ft 371 kts 164°
2026-04-28 18:49 -5.43975 38.56770 26358 ft 369 kts 164°
2026-04-28 18:49 -5.46440 38.57472 25990 ft 367 kts 164°
2026-04-28 18:50 -5.48886 38.58169 25625 ft 365 kts 164°
2026-04-28 18:50 -5.51329 38.58866 25236 ft 364 kts 164°
2026-04-28 18:50 -5.53761 38.59559 24871 ft 363 kts 164°
2026-04-28 18:50 -5.56197 38.60254 24493 ft 362 kts 164°
2026-04-28 18:51 -5.58615 38.60943 24123 ft 361 kts 164°
2026-04-28 18:51 -5.60996 38.61740 23713 ft 361 kts 154°
2026-04-28 18:51 -5.63193 38.62994 23186 ft 364 kts 148°
2026-04-28 18:51 -5.65336 38.64353 22742 ft 363 kts 147°
2026-04-28 18:52 -5.67425 38.65705 22351 ft 361 kts 147°
2026-04-28 18:52 -5.69530 38.67065 21977 ft 358 kts 148°
2026-04-28 18:52 -5.71628 38.68407 21610 ft 355 kts 148°
2026-04-28 18:52 -5.73713 38.69730 21250 ft 353 kts 148°
2026-04-28 18:53 -5.75785 38.71037 20896 ft 350 kts 148°
2026-04-28 18:53 -5.77844 38.72329 20545 ft 348 kts 148°
2026-04-28 18:53 -5.79898 38.73615 20189 ft 346 kts 148°
2026-04-28 18:53 -5.81932 38.74887 19844 ft 344 kts 148°
2026-04-28 18:54 -5.83961 38.76155 19486 ft 343 kts 148°
2026-04-28 18:54 -5.85980 38.77417 19135 ft 341 kts 148°
2026-04-28 18:54 -5.87993 38.78674 18780 ft 340 kts 148°
2026-04-28 18:54 -5.90003 38.79929 18426 ft 339 kts 148°
2026-04-28 18:55 -5.92004 38.81179 18065 ft 338 kts 148°
2026-04-28 18:55 -5.93998 38.82425 17663 ft 337 kts 147°
2026-04-28 18:55 -5.95978 38.83662 17313 ft 334 kts 147°
2026-04-28 18:55 -5.97918 38.84874 16978 ft 331 kts 148°
2026-04-28 18:56 -5.99866 38.86092 16636 ft 329 kts 148°
2026-04-28 18:56 -6.01802 38.87301 16301 ft 326 kts 148°
2026-04-28 18:56 -6.03724 38.88503 15966 ft 325 kts 148°
2026-04-28 18:56 -6.05661 38.89713 15630 ft 323 kts 148°
2026-04-28 18:57 -6.07562 38.90902 15301 ft 321 kts 148°
2026-04-28 18:57 -6.09427 38.92068 14976 ft 319 kts 148°
2026-04-28 18:57 -6.11312 38.93246 14647 ft 318 kts 148°
2026-04-28 18:57 -6.13186 38.94418 14310 ft 317 kts 149°
2026-04-28 18:58 -6.15064 38.95592 13968 ft 317 kts 149°
2026-04-28 18:58 -6.16933 38.96761 13628 ft 316 kts 149°
2026-04-28 18:58 -6.18796 38.97926 13266 ft 315 kts 149°
2026-04-28 18:58 -6.20654 38.99088 12929 ft 313 kts 149°
2026-04-28 18:59 -6.22495 39.00240 12600 ft 311 kts 149°
2026-04-28 18:59 -6.24323 39.01383 12273 ft 309 kts 149°
2026-04-28 18:59 -6.26137 39.02518 11953 ft 307 kts 149°
2026-04-28 18:59 -6.27945 39.03649 11634 ft 305 kts 149°
2026-04-28 19:00 -6.29738 39.04771 11315 ft 303 kts 149°
2026-04-28 19:00 -6.31523 39.05888 11050 ft 299 kts 149°
2026-04-28 19:00 -6.33277 39.06986 10770 ft 296 kts 149°
2026-04-28 19:00 -6.35022 39.08078 10477 ft 294 kts 149°
2026-04-28 19:01 -6.36732 39.09148 10182 ft 293 kts 149°
2026-04-28 19:01 -6.38441 39.10218 10031 ft 285 kts 149°
2026-04-28 19:01 -6.40106 39.11260 9838 ft 280 kts 149°
2026-04-28 19:01 -6.41762 39.12297 9535 ft 279 kts 149°
2026-04-28 19:02 -6.43406 39.13326 9220 ft 278 kts 149°
2026-04-28 19:02 -6.45037 39.14348 8942 ft 276 kts 149°
2026-04-28 19:02 -6.46663 39.15367 8655 ft 274 kts 149°
2026-04-28 19:02 -6.48277 39.16378 8371 ft 273 kts 149°
2026-04-28 19:03 -6.49889 39.17387 8071 ft 272 kts 149°
2026-04-28 19:03 -6.51488 39.18389 7792 ft 270 kts 149°
2026-04-28 19:03 -6.53081 39.19387 7529 ft 268 kts 149°
2026-04-28 19:03 -6.54661 39.20376 7258 ft 267 kts 149°
2026-04-28 19:04 -6.56231 39.21360 6990 ft 265 kts 149°
2026-04-28 19:04 -6.57791 39.22337 6714 ft 264 kts 149°
2026-04-28 19:04 -6.59346 39.23311 6442 ft 262 kts 149°
2026-04-28 19:04 -6.60890 39.24279 6160 ft 261 kts 149°
2026-04-28 19:05 -6.62430 39.25244 5865 ft 260 kts 149°
2026-04-28 19:05 -6.63942 39.26191 5596 ft 259 kts 149°
2026-04-28 19:05 -6.65349 39.27298 5293 ft 259 kts 129°
2026-04-28 19:05 -6.66132 39.28928 4946 ft 264 kts 106°
2026-04-28 19:06 -6.66284 39.30780 4602 ft 267 kts 93°
2026-04-28 19:06 -6.66280 39.32043 4378 ft 268 kts 92°
2026-04-28 19:06 -6.66797 39.34394 4023 ft 256 kts 126°
2026-04-28 19:06 -6.68051 39.35581 3924 ft 245 kts 151°
2026-04-28 19:07 -6.69627 39.36105 3869 ft 234 kts 173°
2026-04-28 19:07 -6.71210 39.35984 3861 ft 225 kts 193°
2026-04-28 19:07 -6.72622 39.35367 3744 ft 221 kts 212°
2026-04-28 19:07 -6.73752 39.34347 3550 ft 215 kts 221°
2026-04-28 19:08 -6.74784 39.33298 3336 ft 207 kts 221°
2026-04-28 19:08 -6.75786 39.32291 3103 ft 200 kts 221°
2026-04-28 19:08 -6.76757 39.31319 2915 ft 192 kts 220°
2026-04-28 19:08 -6.77674 39.30402 2715 ft 181 kts 220°
2026-04-28 19:09 -6.78535 39.29541 2483 ft 169 kts 220°
2026-04-28 19:09 -6.79334 39.28743 2257 ft 159 kts 220°
2026-04-28 19:09 -6.80080 39.27996 2088 ft 144 kts 220°
2026-04-28 19:09 -6.80788 39.27290 1864 ft 144 kts 220°
2026-04-28 19:10 -6.81491 39.26588 1664 ft 141 kts 220°
2026-04-28 19:10 -6.82188 39.25891 1448 ft 141 kts 221°
2026-04-28 19:10 -6.82882 39.25180 1235 ft 143 kts 222°
2026-04-28 19:10 -6.83588 39.24471 1016 ft 144 kts 222°
2026-04-28 19:11 -6.84299 39.23778 817 ft 142 kts 223°
2026-04-28 19:11 -6.84996 39.23074 599 ft 142 kts 225°
2026-04-28 19:11 -6.85689 39.22381 399 ft 139 kts 224°
2026-04-28 19:11 -6.86377 39.21697 208 ft 137 kts 225°
2026-04-28 19:12 -6.86989 39.21084 176 ft 108 kts 224°
2026-04-28 19:12 -6.87418 39.20657 177 ft 65 kts 224°
2026-04-28 19:12 -6.87631 39.20445 178 ft 18 kts 225°
2026-04-28 19:12 -6.87718 39.20357 178 ft 17 kts 225°
2026-04-28 19:13 -6.87803 39.20272 176 ft 18 kts 225°
2026-04-28 19:13 -6.87897 39.20179 177 ft 20 kts 225°
2026-04-28 19:13 -6.87998 39.20078 178 ft 20 kts 224°
2026-04-28 19:13 -6.88074 39.19982 178 ft 15 kts 257°
2026-04-28 19:14 -6.88034 39.19911 180 ft 12 kts 328°
2026-04-28 19:14 -6.87958 39.19898 181 ft 11 kts
2026-04-28 19:14 -6.87887 39.19926 180 ft 11 kts 43°
2026-04-28 19:14 -6.87834 39.19981 180 ft 12 kts 46°
2026-04-28 19:15 -6.87791 39.20026 180 ft 15 kts 46°